Torna al catalogo

STARLINK-37843

AttivoComunicazioniSSO
NORAD 69501·PAYLOAD·🇺🇸 United States

Lanciato Jun 11, 2026 da Vandenberg Space Force Base

Loading…

Prossimi Passaggi (prossime 24 ore)

TLE

AggiornatoSource: CelesTrak SupGP

Epoca: Sep 15, 2026, 03:19 UTC

1 69501C 26131Z   26258.13868056 -.00050665  00000+0 -15728-2 0  2580
2 69501  97.2830 279.1533 0001282  93.3376 151.7852 15.33464068    16

Traccia STARLINK-37843 in tempo reale con AllMySat

Download on the App Store